カタログに戻る

TITAN 3C TRANSTAGE DEB

LostHEO
NORAD 27866·DEBRIS·🇺🇸 United States

打ち上げ Dec 21, 1965 から Cape Canaveral Space Force Station

Loading…

次のパス (今後24時間)

TLE

古いSource: Space-Track

元期: Jul 31, 2025, 09:27 UTC

1 27866U 65108BM  25212.39418887  .00000048  00000-0  00000-0 0  9991
2 27866  26.5557 177.3990 6572473 243.7383 330.0060  2.60545382115409

AllMySatでTITAN 3C TRANSTAGE DEBをリアルタイム追跡

Download on the App Store